DW1105 Weather Reports


Display with metric or nautical units.
time (UTC)temp
F
wind
direction
speed
MPH
gust
MPH
rain 1hr
in
rain 24hr
in
rain mn
in
humidity
%
barometer
mb
20260901192311 82 100 0.0 3.0 0.00 0.11 0.10 78 1013.9
20260901191827 83 291 1.0 3.0 0.00 0.11 0.10 78 1013.9
20260901191324 83 94 0.0 3.0 0.00 0.11 0.10 82 1013.9
20260901190820 82 16 1.0 3.0 0.00 0.11 0.10 81 1014.0
20260901190337 81 115 0.0 0.0 0.00 0.11 0.10 82 1014.1
20260901185812 81 104 0.0 1.0 0.00 0.11 0.10 83 1014.1
20260901185329 81 130 0.0 8.0 0.00 0.11 0.10 83 1014.2
20260901184829 81 333 3.0 8.0 0.00 0.11 0.10 83 1014.2
20260901184326 81 189 0.0 2.0 0.00 0.11 0.10 84 1014.2
20260901183823 81 104 0.0 2.0 0.00 0.11 0.10 84 1014.1
20260901183319 81 24 0.0 1.0 0.00 0.11 0.10 83 1014.1
20260901182815 81 54 0.0 2.0 0.00 0.11 0.10 82 1014.1
20260901182312 81 120 0.0 3.0 0.00 0.11 0.10 84 1014.1
20260901181829 80 80 1.0 3.0 0.00 0.11 0.10 84 1014.0
20260901181330 80 111 0.0 2.0 0.00 0.11 0.10 86 1014.1
20260901180826 80 108 0.0 3.0 0.00 0.11 0.10 85 1014.1
20260901180323 80 319 1.0 3.0 0.00 0.11 0.10 86 1014.0
20260901175820 80 174 2.0 3.0 0.00 0.11 0.10 86 1014.0
20260901175317 79 135 1.0 3.0 0.00 0.11 0.10 88 1014.0
20260901174813 79 96 0.0 3.0 0.00 0.11 0.10 90 1013.9
20260901174330 79 117 1.0 2.0 0.00 0.11 0.10 91 1014.0
20260901173810 78 28 0.0 2.0 0.00 0.11 0.10 92 1014.0
20260901173327 77 69 0.0 2.0 0.00 0.11 0.10 92 1014.1
20260901172824 78 19 0.0 2.0 0.00 0.11 0.10 93 1014.2
20260901172321 77 176 0.0 1.0 0.00 0.11 0.10 94 1014.3
20260901171818 76 132 0.0 0.0 0.00 0.11 0.10 95 1014.3
20260901171315 75 132 0.0 0.0 0.00 0.11 0.10 95 1014.5
20260901170811 75 131 0.0 0.0 0.00 0.11 0.10 96 1014.8
20260901170312 75 109 0.0 0.0 0.00 0.11 0.10 96 1015.0
20260901165828 74 98 0.0 2.0 0.00 0.11 0.10 95 1015.4
20260901165325 74 338 1.0 2.0 0.00 0.11 0.10 95 1015.6
20260901164821 74 45 1.0 2.0 0.00 0.11 0.10 96 1015.3
20260901164318 74 341 1.0 2.0 0.00 0.11 0.10 96 1015.2
20260901163815 74 331 0.0 2.0 0.00 0.11 0.10 96 1015.1
20260901163312 74 74 0.0 2.0 0.00 0.11 0.10 96 1015.0
20260901162811 73 304 0.0 1.0 0.00 0.11 0.10 96 1015.0
20260901162329 73 322 0.0 2.0 0.00 0.11 0.10 96 1015.1
20260901161826 73 332 0.0 2.0 0.00 0.11 0.10 97 1015.1
20260901161322 73 273 0.0 0.0 0.00 0.11 0.10 96 1015.2
20260901160818 73 273 0.0 0.0 0.01 0.11 0.10 96 1015.3
20260901160315 72 273 0.0 0.0 0.01 0.11 0.10 96 1015.4
20260901155811 73 273 0.0 0.0 0.01 0.11 0.10 96 1015.6
20260901155313 73 273 0.0 0.0 0.02 0.11 0.10 96 1015.5
20260901154830 72 273 0.0 0.0 0.03 0.11 0.10 96 1015.6
20260901154326 73 273 0.0 0.0 0.05 0.11 0.10 96 1015.6
20260901153822 72 273 0.0 0.0 0.06 0.11 0.10 96 1015.9
20260901153316 72 273 0.0 0.0 0.06 0.11 0.10 96 1016.1
20260901152813 72 273 0.0 1.0 0.06 0.11 0.10 96 1016.2
20260901152311 72 273 0.0 0.0 0.06 0.11 0.10 96 1016.1
20260901151811 72 273 0.0 0.0 0.06 0.11 0.10 96 1016.4
20260901151328 72 273 0.0 1.0 0.06 0.11 0.10 96 1016.4
20260901150825 72 273 0.0 1.0 0.05 0.10 0.09 96 1016.3
20260901150322 72 273 0.0 0.0 0.05 0.10 0.09 96 1016.5
20260901145818 72 273 0.0 0.0 0.04 0.09 0.08 96 1016.5
20260901145316 72 273 0.0 0.0 0.04 0.09 0.08 95 1016.5
20260901144812 72 273 0.0 2.0 0.03 0.08 0.07 95 1016.5
20260901144313 72 342 0.0 4.0 0.01 0.06 0.05 95 1016.4
20260901143830 72 340 2.0 4.0 0.00 0.05 0.04 95 1016.6
20260901143326 72 360 0.0 2.0 0.00 0.05 0.04 95 1016.4
20260901142822 72 102 0.0 1.0 0.00 0.05 0.04 95 1016.3
20260901142320 72 102 0.0 1.0 0.00 0.05 0.04 95 1016.3
20260901141817 72 102 0.0 2.0 0.00 0.05 0.04 96 1016.3
20260901141314 72 87 0.0 2.0 0.00 0.05 0.04 96 1016.3
20260901140814 72 68 0.0 0.0 0.00 0.05 0.04 96 1016.1
20260901140311 72 103 0.0 0.0 0.00 0.05 0.04 96 1015.9
20260901135827 72 103 0.0 0.0 0.00 0.05 0.04 96 1015.6
20260901135325 72 103 0.0 0.0 0.00 0.05 0.04 96 1015.7
20260901134822 72 103 0.0 0.0 0.00 0.05 0.04 96 1015.6
20260901134319 72 103 0.0 0.0 0.00 0.05 0.04 96 1015.5
20260901133815 72 103 0.0 0.0 0.00 0.05 0.04 96 1015.7
20260901133316 72 103 0.0 0.0 0.00 0.05 0.04 96 1015.6
20260901132812 72 103 0.0 0.0 0.00 0.05 0.04 96 1015.8
20260901132330 72 103 0.0 0.0 0.00 0.05 0.04 97 1015.9
20260901131827 72 103 0.0 0.0 0.00 0.05 0.04 97 1016.0
20260901131324 71 103 0.0 0.0 0.00 0.05 0.04 97 1015.9
20260901130820 71 103 0.0 0.0 0.00 0.05 0.04 97 1015.9
20260901130317 71 103 0.0 0.0 0.00 0.05 0.04 97 1015.9
20260901125817 71 103 0.0 0.0 0.00 0.05 0.04 97 1015.8
20260901125315 71 103 0.0 0.0 0.00 0.05 0.04 97 1015.8
20260901124812 71 103 0.0 0.0 0.00 0.05 0.04 97 1015.9
20260901124328 71 103 0.0 0.0 0.00 0.05 0.04 97 1016.0
20260901123824 71 103 0.0 0.0 0.00 0.05 0.04 97 1016.0
20260901123321 70 103 0.0 0.0 0.00 0.05 0.04 97 1016.0
20260901122818 70 103 0.0 0.0 0.00 0.05 0.04 97 1016.0
20260901122319 70 103 0.0 0.0 0.00 0.05 0.04 97 1016.0
20260901121815 70 103 0.0 0.0 0.01 0.05 0.04 97 1016.0
20260901121312 70 104 0.0 0.0 0.01 0.05 0.04 97 1015.8
20260901120829 70 96 0.0 0.0 0.01 0.05 0.04 97 1015.8
20260901120326 70 355 0.0 0.0 0.02 0.05 0.04 97 1015.6
20260901115822 70 355 0.0 0.0 0.03 0.05 0.04 97 1015.6
20260901115319 70 355 0.0 0.0 0.03 0.05 0.04 97 1015.4
20260901114828 70 355 0.0 0.0 0.03 0.05 0.04 97 1015.5
20260901114325 70 355 0.0 0.0 0.03 0.05 0.04 97 1015.6
20260901113821 69 355 0.0 0.0 0.03 0.05 0.04 97 1015.6
20260901113318 69 355 0.0 0.0 0.03 0.05 0.04 97 1015.8
20260901112813 69 355 0.0 0.0 0.03 0.05 0.04 97 1016.0
20260901112330 69 355 0.0 0.0 0.03 0.05 0.04 97 1016.0
20260901111826 69 355 0.0 0.0 0.02 0.04 0.03 97 1015.9
20260901111326 69 355 0.0 0.0 0.02 0.04 0.03 97 1015.9
20260901110823 69 355 0.0 0.0 0.02 0.04 0.03 97 1015.8
20260901110319 70 355 0.0 0.0 0.01 0.03 0.02 97 1016.1
20260901105816 69 336 0.0 0.0 0.00 0.02 0.01 97 1016.4
20260901105313 69 336 0.0 0.0 0.00 0.02 0.01 97 1016.2
20260901104829 69 336 0.0 0.0 0.00 0.02 0.01 96 1016.1
20260901104326 69 336 0.0 0.0 0.00 0.02 0.01 96 1016.1
20260901103827 69 336 0.0 0.0 0.00 0.02 0.01 96 1016.1
20260831203311 73 320 0.0 2.0 0.00 0.01 0.00 82 1018.8
20260831202826 73 320 0.0 3.0 0.00 0.01 0.00 82 1018.9
20260831202322 73 317 1.0 3.0 0.00 0.01 0.00 82 1019.0
20260831201823 73 13 0.0 2.0 0.00 0.01 0.00 82 1018.8
20260831201320 73 103 0.0 3.0 0.00 0.01 0.00 83 1018.8
20260831200816 72 305 1.0 3.0 0.00 0.01 0.00 85 1018.9
20260831200313 72 29 0.0 2.0 0.00 0.01 0.00 84 1019.0
20260831195828 72 329 0.0 1.0 0.00 0.01 0.00 86 1019.1
20260831195324 71 329 0.0 2.0 0.00 0.01 0.00 85 1019.1
20260831194820 71 329 0.0 3.0 0.00 0.01 0.00 86 1019.2
20260831194320 71 336 1.0 3.0 0.00 0.01 0.00 86 1019.4
20260831193816 71 330 1.0 3.0 0.00 0.01 0.00 85 1019.6
20260831193313 72 360 0.0 3.0 0.00 0.01 0.00 85 1019.6
20260831192829 72 286 1.0 3.0 0.00 0.01 0.00 84 1019.6